Location: Akdamlar
(36.8729°N, 30.5187°E)
Time: 21:01:32
(UTC+00:00)

Ariane Rocket - Pass Details

Date: 18 September 2020
Orbit: 761 x 769 km, 98.7° (Epoch: 24 October)

Event Time Altitude Azimuth Distance (km) Brightness Sun altitude
Exits shadow 18:09:46 35° 197° (SSW) 1,214 3.9 -25.9°
Maximum altitude 18:11:43 58° 259° (W) 888 3.5 -26.3°
Drops below altitude 10° 18:16:43 10° 338° (NNW) 2,307 6.0 -27.2°
Sets 18:19:04 0° 343° (NNW) 3,238 6.8 -27.6°
